14-02-2022, 00:00:00,    263,    0.1,    5.3,   0.00,   0.00,  990.5,   98.7, -999.0
14-02-2022, 00:00:10,    263,    0.2,    5.5,   0.00,   0.01,  990.6,   98.8, -999.0
14-02-2022, 00:00:20,    263,    0.0,    5.4,   0.00,   0.00,  990.5,   98.7, -999.0
14-02-2022, 00:00:30,    263,    0.9,    5.5,   0.00,   0.00,  990.6,   99.0, -999.0
14-02-2022, 00:00:40,    249,    2.1,    5.6,   0.00,   0.01,  990.6,   99.0, -999.0
14-02-2022, 00:00:50,    256,    1.8,    5.5,   0.00,   0.00,  990.7,   99.0, -999.0
14-02-2022, 00:01:00,    255,    0.2,    5.5,   0.00,   0.00,  990.5,   98.8, -999.0
14-02-2022, 00:01:10,    255,    0.0,    5.5,   0.00,   0.01,  990.5,   98.7, -999.0
14-02-2022, 00:01:20,    256,    0.0,    5.4,   0.00,   0.00,  990.5,   98.7, -999.0
14-02-2022, 00:01:30,    255,    0.0,    5.4,   0.00,   0.00,  990.5,   98.6, -999.0
14-02-2022, 00:01:40,    256,    0.0,    5.4,   0.00,   0.01,  990.5,   98.7, -999.0
14-02-2022, 00:01:50,    256,    0.0,    5.4,   0.00,   0.00,  990.5,   98.6, -999.0
14-02-2022, 00:02:00,    256,    0.0,    5.4,   0.00,   0.00,  990.5,   98.7, -999.0
14-02-2022, 00:02:09,    256,    0.0,    5.4,   0.00,   0.01,  990.5,   98.7, -999.0
14-02-2022, 00:02:20,    235,    1.3,    5.5,   0.00,   0.00,  990.6,   99.0, -999.0
14-02-2022, 00:02:30,    256,    1.9,    5.6,   0.00,   0.00,  990.6,   99.0, -999.0
14-02-2022, 00:02:39,    265,    2.0,    5.6,   0.00,   0.01,  990.6,   99.0, -999.0
14-02-2022, 00:02:49,    266,    0.4,    5.5,   0.00,   0.00,  990.6,   98.9, -999.0
14-02-2022, 00:03:00,    268,    0.1,    5.4,   0.00,   0.00,  990.5,   98.8, -999.0
14-02-2022, 00:03:09,    251,    0.7,    5.5,   0.00,   0.01,  990.6,   99.0, -999.0
14-02-2022, 00:03:19,    251,    0.8,    5.4,   0.00,   0.00,  990.6,   99.0, -999.0
14-02-2022, 00:03:29,    251,    0.1,    5.5,   0.00,   0.00,  990.5,   98.8, -999.0
14-02-2022, 00:03:39,    251,    0.0,    5.4,   0.00,   0.00,  990.5,   98.8, -999.0
14-02-2022, 00:03:49,    252,    0.0,    5.5,   0.00,   0.01,  990.5,   98.8, -999.0
14-02-2022, 00:03:59,    258,    0.8,    5.5,   0.00,   0.00,  990.6,   99.1, -999.0
14-02-2022, 00:04:09,    258,    0.1,    5.5,   0.00,   0.00,  990.6,   98.9, -999.0
14-02-2022, 00:04:19,    216,    0.8,    5.5,   0.00,   0.01,  990.6,   98.9, -999.0
14-02-2022, 00:04:29,    216,    2.1,    5.6,   0.00,   0.00,  990.7,   99.1, -999.0
14-02-2022, 00:04:39,    225,    1.0,    5.6,   0.00,   0.01,  990.6,   99.1, -999.0
14-02-2022, 00:04:49,    261,    2.2,    5.4,   0.00,   0.00,  990.6,   99.1, -999.0
14-02-2022, 00:04:59,    261,    1.8,    5.5,   0.00,   0.00,  990.6,   99.0, -999.0
14-02-2022, 00:05:09,    260,    0.3,    5.5,   0.00,   0.01,  990.6,   98.9, -999.0
14-02-2022, 00:05:19,    261,    0.0,    5.4,   0.00,   0.00,  990.6,   98.8, -999.0
14-02-2022, 00:05:29,    261,    0.1,    5.5,   0.00,   0.00,  990.6,   98.8, -999.0
14-02-2022, 00:05:39,    243,    0.7,    5.5,   0.00,   0.01,  990.6,   99.0, -999.0
14-02-2022, 00:05:49,    247,    1.6,    5.5,   0.00,   0.00,  990.6,   99.1, -999.0
14-02-2022, 00:05:58,    262,    1.9,    5.5,   0.00,   0.01,  990.7,   99.0, -999.0
14-02-2022, 00:06:09,    261,    1.7,    5.6,   0.00,   0.00,  990.6,   99.1, -999.0
14-02-2022, 00:06:18,    261,    0.7,    5.5,   0.00,   0.00,  990.6,   99.0, -999.0
14-02-2022, 00:06:28,    255,    1.6,    5.6,   0.00,   0.01,  990.6,   99.0, -999.0
14-02-2022, 00:06:38,    255,    0.9,    5.4,   0.00,   0.00,  990.6,   99.0, -999.0
14-02-2022, 00:06:48,    255,    0.2,    5.5,   0.00,   0.00,  990.6,   98.8, -999.0
14-02-2022, 00:06:58,    254,    0.3,    5.5,   0.00,   0.00,  990.6,   99.0, -999.0
14-02-2022, 00:07:08,    256,    1.2,    5.5,   0.00,   0.01,  990.6,   99.0, -999.0
14-02-2022, 00:07:18,    256,    0.2,    5.5,   0.00,   0.00,  990.6,   98.8, -999.0
14-02-2022, 00:07:28,    252,    1.5,    5.5,   0.00,   0.00,  990.7,   99.1, -999.0
14-02-2022, 00:07:38,    252,    1.8,    5.5,   0.00,   0.00,  990.7,   99.0, -999.0
14-02-2022, 00:07:48,    249,    1.5,    5.6,   0.00,   0.01,  990.7,   99.0, -999.0
14-02-2022, 00:07:58,    261,    1.3,    5.4,   0.00,   0.00,  990.7,   99.0, -999.0
14-02-2022, 00:08:08,    261,    0.8,    5.5,   0.00,   0.00,  990.7,   99.0, -999.0
14-02-2022, 00:08:18,    260,    1.6,    5.4,   0.00,   0.00,  990.7,   99.0, -999.0
14-02-2022, 00:08:28,    259,    1.8,    5.5,   0.00,   0.01,  990.6,   99.0, -999.0
14-02-2022, 00:08:38,    259,    1.5,    5.5,   0.00,   0.00,  990.6,   99.0, -999.0
14-02-2022, 00:08:48,    267,    1.9,    5.5,   0.00,   0.00,  990.7,   99.1, -999.0
14-02-2022, 00:08:58,    267,    0.8,    5.5,   0.00,   0.00,  990.6,   98.9, -999.0
14-02-2022, 00:09:07,    266,    0.4,    5.4,   0.00,   0.01,  990.6,   98.9, -999.0
14-02-2022, 00:09:18,    266,    0.1,    5.4,   0.00,   0.00,  990.5,   98.7, -999.0
14-02-2022, 00:09:28,    266,    0.5,    5.6,   0.00,   0.00,  990.6,   99.0, -999.0
14-02-2022, 00:09:37,    261,    1.0,    5.5,   0.00,   0.00,  990.7,   99.1, -999.0
14-02-2022, 00:09:47,    261,    0.0,    5.5,   0.00,   0.01,  990.5,   98.6, -999.0
14-02-2022, 00:09:58,    261,    0.0,    5.4,   0.00,   0.00,  990.6,   98.8, -999.0
14-02-2022, 00:10:07,    261,    0.0,    5.4,   0.00,   0.00,  990.6,   98.7, -999.0
14-02-2022, 00:10:17,    261,    0.2,    5.5,   0.00,   0.00,  990.6,   98.8, -999.0
14-02-2022, 00:10:27,    261,    0.1,    5.4,   0.00,   0.01,  990.6,   98.7, -999.0
14-02-2022, 00:10:37,    261,    0.3,    5.4,   0.00,   0.00,  990.6,   98.9, -999.0
14-02-2022, 00:10:47,    261,    0.2,    5.4,   0.00,   0.00,  990.6,   98.8, -999.0
14-02-2022, 00:10:57,    261,    0.0,    5.5,   0.00,   0.01,  990.6,   98.8, -999.0
14-02-2022, 00:11:07,    261,    0.0,    5.4,   0.00,   0.00,  990.6,   98.9, -999.0
14-02-2022, 00:11:17,    261,    0.0,    5.5,   0.00,   0.00,  990.5,   98.6, -999.0
14-02-2022, 00:11:27,    261,    0.0,    5.4,   0.00,   0.00,  990.5,   98.7, -999.0
14-02-2022, 00:11:37,    261,    0.0,    5.5,   0.00,   0.00,  990.5,   98.7, -999.0
14-02-2022, 00:11:47,    261,    0.2,    5.5,   0.00,   0.00,  990.6,   99.0, -999.0
14-02-2022, 00:11:57,    261,    0.0,    5.5,   0.00,   0.01,  990.5,   98.7, -999.0
14-02-2022, 00:12:07,    261,    0.0,    5.4,   0.00,   0.00,  990.5,   98.6, -999.0
14-02-2022, 00:12:17,    261,    0.0,    5.4,   0.00,   0.00,  990.6,   98.7, -999.0
14-02-2022, 00:12:27,    232,    1.1,    5.5,   0.00,   0.00,  990.7,   98.9, -999.0
14-02-2022, 00:12:37,    238,    0.5,    5.5,   0.00,   0.00,  990.6,   98.9, -999.0
14-02-2022, 00:12:47,    240,    0.4,    5.4,   0.00,   0.01,  990.6,   99.0, -999.0
14-02-2022, 00:12:56,    250,    0.5,    5.5,   0.00,   0.00,  990.6,   99.1, -999.0
14-02-2022, 00:13:07,    249,    0.0,    5.4,   0.00,   0.00,  990.5,   98.8, -999.0
14-02-2022, 00:13:16,    251,    0.0,    5.4,   0.00,   0.00,  990.5,   98.7, -999.0
14-02-2022, 00:13:26,    250,    0.0,    5.4,   0.00,   0.00,  990.6,   98.8, -999.0
14-02-2022, 00:13:36,    221,    0.3,    5.5,   0.00,   0.00,  990.7,   99.0, -999.0
14-02-2022, 00:13:46,    223,    0.5,    5.4,   0.00,   0.01,  990.6,   99.0, -999.0
14-02-2022, 00:13:56,    223,    0.3,    5.5,   0.00,   0.00,  990.6,   99.0, -999.0
14-02-2022, 00:14:06,    226,    0.9,    5.5,   0.00,   0.00,  990.7,   99.0, -999.0
14-02-2022, 00:14:16,    292,    1.3,    5.5,   0.00,   0.00,  990.7,   99.0, -999.0
14-02-2022, 00:14:26,    291,    0.4,    5.5,   0.00,   0.00,  990.6,   99.0, -999.0
14-02-2022, 00:14:36,    291,    0.0,    5.4,   0.00,   0.00,  990.5,   98.7, -999.0
14-02-2022, 00:14:46,    291,    0.0,    5.4,   0.00,   0.01,  990.6,   98.8, -999.0
14-02-2022, 00:14:56,    218,    0.9,    5.5,   0.00,   0.00,  990.7,   99.0, -999.0
14-02-2022, 00:15:06,    229,    1.0,    5.6,   0.00,   0.00,  990.7,   99.1, -999.0
14-02-2022, 00:15:16,    253,    1.3,    5.5,   0.00,   0.00,  990.7,   99.1, -999.0
14-02-2022, 00:15:26,    253,    0.4,    5.5,   0.00,   0.00,  990.6,   98.9, -999.0
14-02-2022, 00:15:36,    252,    0.0,    5.4,   0.00,   0.01,  990.6,   98.7, -999.0
14-02-2022, 00:15:46,    253,    0.0,    5.4,   0.00,   0.00,  990.6,   98.7, -999.0
14-02-2022, 00:15:56,    253,    0.0,    5.4,   0.00,   0.00,  990.6,   98.6, -999.0
14-02-2022, 00:16:05,    252,    0.0,    5.4,   0.00,   0.00,  990.5,   98.6, -999.0
14-02-2022, 00:16:16,    253,    0.0,    5.4,   0.00,   0.00,  990.5,   98.6, -999.0
14-02-2022, 00:16:26,    265,    0.2,    5.4,   0.00,   0.01,  990.5,   98.6, -999.0
14-02-2022, 00:16:35,    266,    1.6,    5.6,   0.00,   0.00,  990.7,   99.0, -999.0
14-02-2022, 00:16:46,    264,    1.0,    5.5,   0.00,   0.00,  990.7,   99.1, -999.0
14-02-2022, 00:16:56,    265,    0.9,    5.6,   0.00,   0.00,  990.7,   99.0, -999.0
14-02-2022, 00:17:05,    264,    0.2,    5.4,   0.00,   0.00,  990.6,   98.8, -999.0
14-02-2022, 00:17:15,    264,    0.0,    5.4,   0.00,   0.00,  990.6,   98.9, -999.0
14-02-2022, 00:17:26,    269,    0.2,    5.4,   0.00,   0.00,  990.6,   98.7, -999.0
14-02-2022, 00:17:35,    268,    1.7,    5.5,   0.00,   0.01,  990.6,   99.0, -999.0
14-02-2022, 00:17:45,    268,    0.2,    5.4,   0.00,   0.00,  990.6,   98.9, -999.0
14-02-2022, 00:17:55,    267,    0.0,    5.4,   0.00,   0.00,  990.5,   98.6, -999.0
14-02-2022, 00:18:05,    268,    0.0,    5.4,   0.00,   0.00,  990.5,   98.8, -999.0
14-02-2022, 00:18:15,    268,    0.0,    5.5,   0.00,   0.00,  990.5,   98.6, -999.0
14-02-2022, 00:18:25,    268,    0.0,    5.5,   0.00,   0.00,  990.6,   98.8, -999.0
14-02-2022, 00:18:35,    268,    0.0,    5.4,   0.00,   0.00,  990.5,   98.5, -999.0
14-02-2022, 00:18:45,    253,    1.0,    5.5,   0.00,   0.00,  990.6,   99.0, -999.0
14-02-2022, 00:18:55,    285,    1.3,    5.5,   0.00,   0.00,  990.7,   99.0, -999.0
14-02-2022, 00:19:05,    278,    1.1,    5.6,   0.00,   0.01,  990.6,   98.9, -999.0
14-02-2022, 00:19:15,    279,    0.0,    5.4,   0.00,   0.00,  990.5,   98.8, -999.0
14-02-2022, 00:19:25,    279,    0.6,    5.4,   0.00,   0.00,  990.6,   99.0, -999.0
14-02-2022, 00:19:35,    279,    0.0,    5.4,   0.00,   0.00,  990.5,   98.7, -999.0
14-02-2022, 00:19:45,    278,    0.0,    5.5,   0.00,   0.00,  990.5,   98.7, -999.0
14-02-2022, 00:19:54,    279,    0.0,    5.5,   0.00,   0.00,  990.5,   98.7, -999.0
14-02-2022, 00:20:05,    279,    0.4,    5.5,   0.00,   0.00,  990.6,   99.0, -999.0
14-02-2022, 00:20:14,    278,    0.1,    5.5,   0.00,   0.00,  990.6,   98.7, -999.0
14-02-2022, 00:20:24,    278,    0.0,    5.4,   0.00,   0.00,  990.5,   98.7, -999.0
14-02-2022, 00:20:35,    279,    0.0,    5.4,   0.00,   0.00,  990.5,   98.6, -999.0
14-02-2022, 00:20:44,    278,    0.0,    5.4,   0.00,   0.00,  990.5,   98.7, -999.0
14-02-2022, 00:20:54,    278,    0.0,    5.4,   0.00,   0.01,  990.5,   98.6, -999.0
14-02-2022, 00:21:04,    277,    0.0,    5.4,   0.00,   0.00,  990.6,   98.8, -999.0
14-02-2022, 00:21:16,    273,    1.2,    5.5,   0.00,   0.00,  990.6,   99.0, -999.0
14-02-2022, 00:21:24,    272,    0.7,    5.6,   0.00,   0.00,  990.7,   99.0, -999.0
14-02-2022, 00:21:34,    210,    0.4,    5.4,   0.00,   0.00,  990.6,   98.8, -999.0
14-02-2022, 00:21:44,    221,    0.4,    5.6,   0.00,   0.00,  990.6,   99.0, -999.0
14-02-2022, 00:21:54,    240,    0.6,    5.5,   0.00,   0.00,  990.6,   99.0, -999.0
14-02-2022, 00:22:04,    250,    1.1,    5.5,   0.00,   0.00,  990.7,   99.0, -999.0
14-02-2022, 00:22:14,    244,    1.5,    5.5,   0.00,   0.01,  990.7,   99.0, -999.0
14-02-2022, 00:22:24,    244,    0.5,    5.4,   0.00,   0.00,  990.6,   98.8, -999.0
14-02-2022, 00:22:34,    244,    0.1,    5.4,   0.00,   0.00,  990.6,   98.7, -999.0
14-02-2022, 00:22:44,    247,    2.1,    5.5,   0.00,   0.00,  990.7,   99.1, -999.0
14-02-2022, 00:22:54,    251,    1.8,    5.5,   0.00,   0.00,  990.7,   99.1, -999.0
14-02-2022, 00:23:03,    253,    1.5,    5.4,   0.00,   0.00,  990.7,   99.1, -999.0
14-02-2022, 00:23:14,    253,    0.5,    5.5,   0.00,   0.00,  990.6,   99.0, -999.0
14-02-2022, 00:23:24,    253,    0.0,    5.4,   0.00,   0.00,  990.6,   98.8, -999.0
14-02-2022, 00:23:33,    253,    0.0,    5.4,   0.00,   0.01,  990.5,   98.6, -999.0
14-02-2022, 00:23:44,    253,    0.0,    5.3,   0.00,   0.00,  990.5,   98.6, -999.0
14-02-2022, 00:23:54,    253,    0.0,    5.4,   0.00,   0.00,  990.6,   98.8, -999.0
14-02-2022, 00:24:03,    254,    0.0,    5.6,   0.00,   0.00,  990.5,   98.7, -999.0
14-02-2022, 00:24:13,    253,    0.0,    5.4,   0.00,   0.00,  990.5,   98.8, -999.0
14-02-2022, 00:24:24,    253,    0.0,    5.4,   0.00,   0.00,  990.5,   98.7, -999.0
14-02-2022, 00:24:33,    253,    0.0,    5.4,   0.00,   0.00,  990.5,   98.7, -999.0
14-02-2022, 00:24:43,    253,    0.0,    5.4,   0.00,   0.00,  990.5,   98.7, -999.0
14-02-2022, 00:24:53,    253,    0.0,    5.4,   0.00,   0.01,  990.5,   98.7, -999.0
14-02-2022, 00:25:03,    254,    0.1,    5.4,   0.00,   0.00,  990.6,   98.8, -999.0
14-02-2022, 00:25:13,    253,    0.5,    5.4,   0.00,   0.00,  990.7,   99.0, -999.0
14-02-2022, 00:25:23,    216,    0.4,    5.5,   0.00,   0.00,  990.6,   99.0, -999.0
14-02-2022, 00:25:33,    216,    0.0,    5.4,   0.00,   0.00,  990.6,   98.8, -999.0
14-02-2022, 00:25:43,    216,    0.2,    5.4,   0.00,   0.00,  990.6,   98.8, -999.0
14-02-2022, 00:25:53,    209,    0.9,    5.5,   0.00,   0.00,  990.7,   99.0, -999.0
14-02-2022, 00:26:03,    209,    0.0,    5.4,   0.00,   0.00,  990.6,   98.7, -999.0
14-02-2022, 00:26:13,    218,    0.0,    5.4,   0.00,   0.00,  990.6,   98.7, -999.0
14-02-2022, 00:26:23,    249,    1.7,    5.5,   0.00,   0.00,  990.7,   99.0, -999.0
14-02-2022, 00:26:33,    250,    1.2,    5.5,   0.00,   0.00,  990.7,   99.0, -999.0
14-02-2022, 00:26:42,    221,    0.2,    5.5,   0.00,   0.00,  990.7,   98.9, -999.0
14-02-2022, 00:26:53,    229,    0.7,    5.5,   0.00,   0.01,  990.7,   98.9, -999.0
14-02-2022, 00:27:03,    233,    0.8,    5.5,   0.00,   0.00,  990.8,   99.1, -999.0
14-02-2022, 00:27:12,    234,    0.5,    5.5,   0.00,   0.00,  990.8,   99.0, -999.0
14-02-2022, 00:27:22,    234,    0.0,    5.4,   0.00,   0.00,  990.6,   98.7, -999.0
14-02-2022, 00:27:33,    236,    0.2,    5.5,   0.00,   0.00,  990.7,   98.8, -999.0
14-02-2022, 00:27:42,    235,    0.5,    5.5,   0.00,   0.00,  990.7,   98.9, -999.0
14-02-2022, 00:27:52,    236,    0.0,    5.4,   0.00,   0.00,  990.6,   98.6, -999.0
14-02-2022, 00:28:02,    217,    2.3,    5.5,   0.00,   0.00,  990.7,   99.0, -999.0
14-02-2022, 00:28:12,    244,    2.1,    5.5,   0.00,   0.00,  990.7,   99.0, -999.0
14-02-2022, 00:28:22,    247,    1.5,    5.5,   0.00,   0.00,  990.7,   99.0, -999.0
14-02-2022, 00:28:32,    254,    1.8,    5.6,   0.00,   0.00,  990.7,   99.0, -999.0
14-02-2022, 00:28:42,    254,    0.9,    5.5,   0.00,   0.00,  990.8,   99.1, -999.0
14-02-2022, 00:28:52,    253,    0.3,    5.5,   0.00,   0.00,  990.8,   99.0, -999.0
14-02-2022, 00:29:02,    254,    0.2,    5.4,   0.00,   0.00,  990.8,   98.8, -999.0
14-02-2022, 00:29:12,    219,    2.0,    5.4,   0.00,   0.00,  990.8,   99.0, -999.0
14-02-2022, 00:29:22,    231,    1.6,    5.3,   0.00,   0.00,  990.8,   99.0, -999.0
14-02-2022, 00:29:32,    232,    1.0,    5.5,   0.00,   0.00,  990.8,   99.0, -999.0
14-02-2022, 00:29:42,    230,    0.7,    5.7,   0.00,   0.00,  990.8,   99.0, -999.0
14-02-2022, 00:29:52,    234,    1.1,    5.5,   0.00,   0.00,  990.8,   99.0, -999.0
14-02-2022, 00:30:02,    234,    0.3,    5.5,   0.00,   0.00,  990.8,   98.9, -999.0
14-02-2022, 00:30:12,    234,    0.1,    5.5,   0.00,   0.00,  990.8,   98.8, -999.0
14-02-2022, 00:30:22,    239,    0.0,    5.4,   0.00,   0.00,  990.7,   98.6, -999.0
14-02-2022, 00:30:31,    239,    0.5,    5.6,   0.00,   0.00,  990.8,   99.0, -999.0
14-02-2022, 00:30:42,    233,    0.7,    5.5,   0.00,   0.00,  990.8,   99.0, -999.0
14-02-2022, 00:30:52,    233,    0.2,    5.5,   0.00,   0.00,  990.8,   98.9, -999.0
14-02-2022, 00:31:01,    252,    0.8,    5.4,   0.00,   0.00,  990.7,   98.9, -999.0
14-02-2022, 00:31:11,    255,    1.0,    5.6,   0.00,   0.00,  990.9,   99.1, -999.0
14-02-2022, 00:31:22,    255,    0.4,    5.5,   0.00,   0.00,  990.8,   99.0, -999.0
14-02-2022, 00:31:31,    255,    0.0,    5.4,   0.00,   0.00,  990.7,   98.7, -999.0
14-02-2022, 00:31:41,    255,    0.0,    5.4,   0.00,   0.00,  990.7,   98.6, -999.0
14-02-2022, 00:31:51,    255,    0.0,    5.4,   0.00,   0.00,  990.7,   98.7, -999.0
14-02-2022, 00:32:01,    255,    0.0,    5.4,   0.00,   0.01,  990.7,   98.6, -999.0
14-02-2022, 00:32:11,    255,    0.2,    5.4,   0.00,   0.00,  990.8,   98.8, -999.0
14-02-2022, 00:32:21,    255,    0.5,    5.5,   0.00,   0.00,  990.8,   99.1, -999.0
14-02-2022, 00:32:31,    249,    1.9,    5.5,   0.00,   0.00,  990.8,   99.0, -999.0
14-02-2022, 00:32:41,    248,    0.5,    5.5,   0.00,   0.00,  990.8,   99.0, -999.0
14-02-2022, 00:32:51,    249,    0.6,    5.6,   0.00,   0.00,  990.8,   99.1, -999.0
14-02-2022, 00:33:01,    253,    0.3,    5.5,   0.00,   0.00,  990.8,   98.9, -999.0
14-02-2022, 00:33:11,    248,    0.1,    5.5,   0.00,   0.00,  990.8,   98.8, -999.0
14-02-2022, 00:33:21,    248,    0.3,    5.5,   0.00,   0.00,  990.8,   98.9, -999.0
14-02-2022, 00:33:31,    248,    0.0,    5.5,   0.00,   0.00,  990.7,   98.6, -999.0
14-02-2022, 00:33:41,    248,    0.4,    5.5,   0.00,   0.00,  990.8,   99.0, -999.0
14-02-2022, 00:33:51,    248,    0.0,    5.5,   0.00,   0.00,  990.7,   98.8, -999.0
14-02-2022, 00:34:01,    255,    0.2,    5.5,   0.00,   0.00,  990.8,   98.8, -999.0
14-02-2022, 00:34:10,    254,    0.0,    5.5,   0.00,   0.00,  990.7,   98.7, -999.0
14-02-2022, 00:34:20,    255,    0.0,    5.5,   0.00,   0.00,  990.7,   98.7, -999.0
14-02-2022, 00:34:31,    255,    0.0,    5.5,   0.00,   0.00,  990.7,   98.6, -999.0
14-02-2022, 00:34:40,    255,    0.0,    5.5,   0.00,   0.00,  990.7,   98.7, -999.0
14-02-2022, 00:34:50,    254,    0.0,    5.5,   0.00,   0.00,  990.7,   98.7, -999.0
14-02-2022, 00:35:00,    254,    0.0,    5.5,   0.00,   0.00,  990.7,   98.6, -999.0
14-02-2022, 00:35:10,    255,    0.0,    5.5,   0.00,   0.00,  990.7,   98.6, -999.0
14-02-2022, 00:35:20,    253,    0.0,    5.5,   0.00,   0.00,  990.7,   98.6, -999.0
14-02-2022, 00:35:30,    257,    0.3,    5.6,   0.00,   0.00,  990.8,   99.0, -999.0
14-02-2022, 00:35:40,    261,    2.0,    5.6,   0.00,   0.00,  990.9,   99.0, -999.0
14-02-2022, 00:35:50,    258,    1.6,    5.6,   0.00,   0.00,  990.9,   99.0, -999.0
14-02-2022, 00:36:00,    275,    0.7,    5.5,   0.00,   0.00,  990.8,   98.9, -999.0
14-02-2022, 00:36:10,    275,    0.5,    5.4,   0.00,   0.00,  990.8,   99.0, -999.0
14-02-2022, 00:36:20,    275,    0.0,    5.5,   0.00,   0.00,  990.7,   98.7, -999.0
14-02-2022, 00:36:30,    274,    0.2,    5.5,   0.00,   0.00,  990.7,   98.7, -999.0
14-02-2022, 00:36:40,    275,    0.0,    5.5,   0.00,   0.00,  990.7,   98.7, -999.0
14-02-2022, 00:36:50,    275,    0.0,    5.4,   0.00,   0.01,  990.7,   98.6, -999.0
14-02-2022, 00:37:00,    275,    0.5,    5.5,   0.00,   0.00,  990.8,   99.0, -999.0
14-02-2022, 00:37:10,    267,    2.1,    5.6,   0.00,   0.00,  990.9,   99.1, -999.0
14-02-2022, 00:37:20,    263,    2.2,    5.5,   0.00,   0.00,  990.9,   99.0, -999.0
14-02-2022, 00:37:29,    275,    1.7,    5.6,   0.00,   0.00,  990.9,   99.1, -999.0
14-02-2022, 00:37:40,    275,    0.9,    5.5,   0.00,   0.00,  990.9,   99.0, -999.0
14-02-2022, 00:37:50,    275,    0.2,    5.4,   0.00,   0.00,  990.8,   98.9, -999.0
14-02-2022, 00:37:59,    275,    0.0,    5.4,   0.00,   0.00,  990.7,   98.7, -999.0
14-02-2022, 00:38:09,    275,    0.0,    5.4,   0.00,   0.00,  990.7,   98.6, -999.0
14-02-2022, 00:38:20,    275,    0.0,    5.4,   0.00,   0.00,  990.7,   98.7, -999.0
14-02-2022, 00:38:29,    275,    0.0,    5.5,   0.00,   0.00,  990.7,   98.8, -999.0
14-02-2022, 00:38:39,    275,    0.1,    5.5,   0.00,   0.00,  990.8,   98.9, -999.0
14-02-2022, 00:38:49,    275,    0.1,    5.4,   0.00,   0.00,  990.8,   98.7, -999.0
14-02-2022, 00:38:59,    275,    0.5,    5.5,   0.00,   0.00,  990.8,   99.0, -999.0
14-02-2022, 00:39:09,    275,    0.0,    5.5,   0.00,   0.00,  990.7,   98.6, -999.0
14-02-2022, 00:39:19,    275,    0.0,    5.5,   0.00,   0.00,  990.7,   98.7, -999.0
14-02-2022, 00:39:29,    271,    0.5,    5.5,   0.00,   0.00,  990.8,   98.8, -999.0
14-02-2022, 00:39:39,    258,    2.4,    5.5,   0.00,   0.00,  990.9,   99.0, -999.0
14-02-2022, 00:39:49,    245,    2.5,    5.5,   0.00,   0.00,  990.9,   99.0, -999.0
14-02-2022, 00:39:59,    242,    1.3,    5.5,   0.00,   0.00,  990.9,   99.0, -999.0
14-02-2022, 00:40:09,    242,    0.7,    5.6,   0.00,   0.00,  990.9,   99.0, -999.0
14-02-2022, 00:40:19,    256,    1.2,    5.5,   0.00,   0.00,  990.9,   99.0, -999.0
14-02-2022, 00:40:29,    257,    0.8,    5.5,   0.00,   0.00,  990.8,   99.0, -999.0
14-02-2022, 00:40:39,    256,    0.1,    5.4,   0.00,   0.00,  990.8,   98.7, -999.0
14-02-2022, 00:40:49,    256,    0.0,    5.5,   0.00,   0.00,  990.7,   98.7, -999.0
14-02-2022, 00:40:59,    257,    0.0,    5.4,   0.00,   0.00,  990.7,   98.7, -999.0
14-02-2022, 00:41:08,    258,    1.4,    5.5,   0.00,   0.00,  990.9,   99.0, -999.0
14-02-2022, 00:41:18,    282,    2.0,    5.6,   0.00,   0.00,  990.8,   99.0, -999.0
14-02-2022, 00:41:29,    264,    1.4,    5.6,   0.00,   0.00,  990.9,   99.1, -999.0
14-02-2022, 00:41:38,    264,    0.3,    5.5,   0.00,   0.00,  990.8,   99.1, -999.0
14-02-2022, 00:41:48,    264,    0.2,    5.5,   0.00,   0.00,  990.8,   98.8, -999.0
14-02-2022, 00:41:58,    264,    0.0,    5.4,   0.00,   0.00,  990.7,   98.7, -999.0
14-02-2022, 00:42:08,    264,    0.1,    5.4,   0.00,   0.00,  990.8,   98.8, -999.0
14-02-2022, 00:42:18,    264,    0.4,    5.4,   0.00,   0.00,  990.8,   98.8, -999.0
14-02-2022, 00:42:28,    264,    0.4,    5.5,   0.00,   0.00,  990.8,   99.0, -999.0
14-02-2022, 00:42:38,    229,    1.3,    5.4,   0.00,   0.00,  990.9,   99.1, -999.0
14-02-2022, 00:42:48,    232,    1.2,    5.5,   0.00,   0.00,  990.8,   99.0, -999.0
14-02-2022, 00:42:58,    230,    1.7,    5.5,   0.00,   0.00,  990.9,   99.0, -999.0
14-02-2022, 00:43:08,    231,    1.9,    5.5,   0.00,   0.00,  990.9,   99.1, -999.0
14-02-2022, 00:43:18,    232,    1.0,    5.6,   0.00,   0.00,  990.9,   99.0, -999.0
14-02-2022, 00:43:28,    246,    2.0,    5.6,   0.00,   0.01,  990.8,   98.9, -999.0
14-02-2022, 00:43:38,    254,    2.1,    5.6,   0.00,   0.00,  990.9,   99.0, -999.0
14-02-2022, 00:43:48,    232,    2.0,    5.6,   0.00,   0.00,  990.9,   99.0, -999.0
14-02-2022, 00:43:58,    244,    1.9,    5.6,   0.00,   0.00,  990.9,   99.0, -999.0
14-02-2022, 00:44:08,    241,    1.7,    5.6,   0.00,   0.00,  990.9,   99.0, -999.0
14-02-2022, 00:44:18,    237,    1.9,    5.5,   0.00,   0.00,  990.9,   99.1, -999.0
14-02-2022, 00:44:27,    249,    3.9,    5.5,   0.00,   0.00,  990.9,   99.0, -999.0
14-02-2022, 00:44:38,    249,    2.2,    5.5,   0.00,   0.00,  990.9,   99.0, -999.0
14-02-2022, 00:44:48,    239,    2.2,    5.5,   0.00,   0.00,  990.9,   99.1, -999.0
14-02-2022, 00:44:57,    238,    0.6,    5.5,   0.00,   0.00,  990.9,   99.0, -999.0
14-02-2022, 00:45:07,    236,    0.1,    5.4,   0.00,   0.00,  990.8,   98.8, -999.0
14-02-2022, 00:45:18,    233,    0.0,    5.5,   0.00,   0.00,  990.7,   98.6, -999.0
14-02-2022, 00:45:27,    253,    2.1,    5.5,   0.00,   0.00,  990.9,   99.1, -999.0
14-02-2022, 00:45:37,    268,    4.3,    5.5,   0.00,   0.00,  990.9,   99.0, -999.0
14-02-2022, 00:45:47,    284,    2.1,    5.5,   0.00,   0.00,  990.9,   99.1, -999.0
14-02-2022, 00:45:57,    261,    2.6,    5.5,   0.00,   0.00,  990.9,   99.0, -999.0
14-02-2022, 00:46:07,    261,    1.8,    5.5,   0.00,   0.00,  990.9,   99.1, -999.0
14-02-2022, 00:46:17,    260,    1.9,    5.5,   0.00,   0.00,  990.9,   99.0, -999.0
14-02-2022, 00:46:27,    259,    0.6,    5.6,   0.00,   0.00,  990.9,   99.0, -999.0
14-02-2022, 00:46:37,    259,    0.4,    5.5,   0.00,   0.00,  990.8,   98.9, -999.0